星链-31073 (STARLINK-31073 )

导读 | 星芒AI

STARLINK-31073 是 SpaceX Starlink 卫星互联网项目中的一颗低轨卫星,属于第 6 批次部署的星链卫星之一。该卫星于 2023 年发射,运行在约 550 公里的轨道高度,旨在为全球用户提供高速、低延迟的互联网服务。作为 Starlink 网络的一部分,它通过与其他卫星协同工作,实现全球范围的宽带覆盖,尤其服务于传统网络难以到达的地区。该卫星采用先进推进系统,具备自主变轨和避碰能力,支持 SpaceX 的可持续太空发展目标。

基本信息
目录编号:
58773
目录名称:
STARLINK-31073
国际标识:
2024-011J
轨道中心:
EARTH
卫星名称:
星链-31073
卫星全名:
星链-31073 (STARLINK-31073 )
卫星状态:
在轨 (已飞行656 天)
发射日期:
2024-01-14 UTC
国别 :
美国 (US)
星等 :
--
轨道信息
数据来源 国际轨道数据
星历时间: 2025-10-31T11:12:10+0800
17小时前
查看轨道信息
半长轴: 6853.367km
偏心率: 0.0001158
轨道倾角: 53.160°
近地点辐角 72.121°
升交点赤经 255.525°
平近点角 287.992°
近地点: 474.438km
远地点: 476.026km
周期: 94.106分钟
每日圈数: 15.30195
详细信息
固有亮度:
5
最大亮度:
0.3
卫星平台:
Starlink v2.0 mini
覆盖范围:
全球
运营商:
太空探索技术公司
运营商所在国:
美国
制造商(研发单位):
太空探索技术公司
制造商所在国:
美国
使用方式:
暂无
卫星简介
星链(Starlink)计划是由太空探索技术公司(SpaceX)提出的一个巨型低轨卫星互联网星座项目,计划在2019年至2024年间在太空搭建由约1.2万颗卫星组成的“星链”网络,其中1584颗将部署在地球上空550千米处的近地轨道,并从2020年开始工作。该卫星仍在工作。
2D轨道图
3D轨道图
轨道高度分析图
轨道倾角分析图
轨道综合分析图
查看轨道综合分析图